GW4240 Weather Reports


Display with metric or nautical units.
time (UTC)temp
F
wind
direction
speed
MPH
gust
MPH
rain 1hr
in
rain 24hr
in
rain mn
in
humidity
%
barometer
mb
20260505011023 74 121 3.0 5.0 0.00 0.00 0.00 55 1008.6
20260505010522 74 200 2.0 5.0 0.00 0.00 0.00 55 1008.6
20260505010037 74 101 2.0 5.0 0.00 0.00 0.00 53 1008.7
20260505005521 75 221 1.0 5.0 0.00 0.00 0.00 54 1008.6
20260505005022 74 212 1.0 5.0 0.00 0.00 0.00 54 1008.7
20260505004542 74 195 1.0 5.0 0.00 0.00 0.00 54 1008.6
20260505004021 75 155 1.0 5.0 0.00 0.00 0.00 54 1008.6
20260505003521 75 201 2.0 4.0 0.00 0.00 0.00 54 1008.6
20260505003040 75 218 2.0 5.0 0.00 0.00 0.00 53 1008.6
20260505002524 75 241 2.0 5.0 0.00 0.00 0.00 52 1008.6
20260505002022 75 214 2.0 5.0 0.00 0.00 0.00 52 1008.7
20260505001538 75 237 2.0 5.0 0.00 0.00 0.00 50 1008.7
20260505001021 75 210 2.0 6.0 0.00 0.00 0.00 51 1008.6
20260505000521 75 130 2.0 6.0 0.00 0.00 0.00 52 1008.7
20260505000111 75 225 2.0 5.0 0.00 0.00 0.00 52 1008.7
20260504235522 75 134 2.0 4.0 0.00 0.00 0.00 50 1008.8
20260504235022 75 224 0.0 5.0 0.00 0.00 0.00 51 1008.8
20260504234544 75 224 1.0 5.0 0.00 0.00 0.00 49 1008.9
20260504234021 75 238 2.0 4.0 0.00 0.00 0.00 51 1008.9
20260504233524 75 116 2.0 3.0 0.00 0.00 0.00 52 1009.0
20260504233057 74 206 1.0 4.0 0.00 0.00 0.00 50 1009.0
20260504232522 74 146 2.0 4.0 0.00 0.00 0.00 50 1009.0
20260504232021 74 206 2.0 4.0 0.00 0.00 0.00 49 1009.1
20260504231541 74 219 2.0 4.0 0.00 0.00 0.00 49 1009.1
20260504231021 74 148 1.0 3.0 0.00 0.00 0.00 50 1009.1
20260504230522 73 194 1.0 3.0 0.00 0.00 0.00 50 1009.1
20260504230037 72 124 0.0 4.0 0.00 0.00 0.00 50 1009.1
20260504225522 72 250 2.0 4.0 0.00 0.00 0.00 53 1009.3
20260504225021 71 262 2.0 4.0 0.00 0.00 0.00 53 1009.3
20260504224541 70 253 1.0 4.0 0.00 0.00 0.00 54 1009.3
20260504224021 70 143 1.0 4.0 0.00 0.00 0.00 58 1009.4
20260504223521 69 138 2.0 4.0 0.00 0.00 0.00 59 1009.4
20260504223042 69 135 2.0 4.0 0.00 0.00 0.00 64 1009.4
20260504222520 68 128 2.0 6.0 0.00 0.00 0.00 66 1009.4
20260504222023 68 132 3.0 6.0 0.00 0.00 0.00 69 1009.4
20260504221542 69 136 4.0 6.0 0.00 0.00 0.00 68 1009.5
20260504221022 70 136 3.0 5.0 0.00 0.00 0.00 67 1009.5
20260504220522 70 145 3.0 5.0 0.00 0.00 0.00 65 1009.5
20260504220037 71 167 2.0 5.0 0.00 0.00 0.00 62 1009.4
20260504215521 72 174 3.0 5.0 0.00 0.00 0.00 57 1009.5
20260504215022 72 129 2.0 4.0 0.00 0.00 0.00 55 1009.4
20260504214538 72 153 1.0 5.0 0.00 0.00 0.00 56 1009.5
20260504214021 72 237 1.0 5.0 0.00 0.00 0.00 58 1009.5
20260504213521 72 152 2.0 5.0 0.00 0.00 0.00 57 1009.6
20260504213041 72 180 2.0 5.0 0.00 0.00 0.00 56 1009.6
20260504212521 73 176 2.0 5.0 0.00 0.00 0.00 53 1009.6
20260504212020 73 277 2.0 5.0 0.00 0.00 0.00 51 1009.6
20260504211541 73 168 2.0 5.0 0.00 0.00 0.00 49 1009.7
20260504211021 73 266 1.0 6.0 0.00 0.00 0.00 51 1009.7
20260504210521 73 265 2.0 6.0 0.00 0.00 0.00 48 1009.7
20260504210041 73 134 2.0 6.0 0.00 0.00 0.00 49 1009.7
20260504205521 73 197 1.0 6.0 0.00 0.00 0.00 50 1009.8
20260504205021 73 272 2.0 6.0 0.00 0.00 0.00 48 1009.9
20260504204538 73 200 2.0 6.0 0.00 0.00 0.00 53 1009.8
20260504204021 73 143 2.0 5.0 0.00 0.00 0.00 55 1009.8
20260504203521 73 201 3.0 5.0 0.00 0.00 0.00 49 1009.9
20260504203049 73 174 1.0 6.0 0.00 0.00 0.00 50 1009.9
20260504202521 73 167 3.0 6.0 0.00 0.00 0.00 48 1010.1
20260504202021 73 167 3.0 5.0 0.00 0.00 0.00 51 1010.1
20260504201544 73 153 1.0 5.0 0.00 0.00 0.00 52 1010.1
20260504201021 73 281 2.0 5.0 0.00 0.00 0.00 49 1010.2
20260504200521 73 204 1.0 5.0 0.00 0.00 0.00 56 1010.2
20260504200038 72 270 0.0 4.0 0.00 0.00 0.00 51 1010.2
20260504195520 72 174 1.0 4.0 0.00 0.00 0.00 53 1010.2
20260504195021 71 259 2.0 6.0 0.00 0.00 0.00 51 1010.3
20260504194545 70 263 2.0 7.0 0.00 0.00 0.00 56 1010.4
20260504194022 70 276 4.0 7.0 0.00 0.00 0.00 52 1010.4
20260504193522 71 295 3.0 5.0 0.00 0.00 0.00 51 1010.4
20260504193036 71 226 2.0 7.0 0.00 0.00 0.00 53 1010.3
20260504192521 70 217 2.0 8.0 0.00 0.00 0.00 54 1010.3
20260504192021 70 283 4.0 8.0 0.00 0.00 0.00 51 1010.4
20260504191602 70 259 4.0 8.0 0.00 0.00 0.00 51 1010.3
20260504191022 70 270 3.0 7.0 0.00 0.00 0.00 54 1010.2
20260504190522 70 269 4.0 7.0 0.00 0.00 0.00 52 1010.4
20260504190041 70 307 3.0 7.0 0.00 0.00 0.00 52 1010.3
20260504185520 69 303 4.0 9.0 0.00 0.00 0.00 53 1010.4
20260504185021 69 262 5.0 9.0 0.00 0.00 0.00 54 1010.4
20260504184541 69 249 4.0 9.0 0.00 0.00 0.00 54 1010.4
20260504184022 69 270 3.0 9.0 0.00 0.00 0.00 55 1010.4
20260504183522 69 246 4.0 9.0 0.00 0.00 0.00 53 1010.5
20260504183041 69 266 4.0 8.0 0.00 0.00 0.00 54 1010.6
20260504182521 69 229 4.0 9.0 0.00 0.00 0.00 54 1010.4
20260504182023 69 273 4.0 9.0 0.00 0.00 0.00 55 1010.4
20260504181538 69 212 5.0 8.0 0.00 0.00 0.00 54 1010.4
20260504181021 69 262 4.0 10.0 0.00 0.00 0.00 55 1010.4
20260504180523 69 232 4.0 10.0 0.00 0.00 0.00 55 1010.5
20260504180037 69 234 4.0 8.0 0.00 0.00 0.00 54 1010.4
20260504175521 69 277 3.0 8.0 0.00 0.00 0.00 56 1010.4
20260504175022 69 264 3.0 8.0 0.00 0.00 0.00 56 1010.4
20260504174541 69 243 3.0 7.0 0.00 0.00 0.00 55 1010.4
20260504174022 68 236 4.0 7.0 0.00 0.00 0.00 59 1010.4
20260504173520 68 288 3.0 8.0 0.00 0.00 0.00 60 1010.4
20260504173040 67 276 6.0 8.0 0.00 0.00 0.00 59 1010.4
20260504172520 68 271 5.0 7.0 0.00 0.00 0.00 60 1010.5
20260504172020 68 226 2.0 7.0 0.00 0.00 0.00 62 1010.5
20260504171547 68 238 3.0 7.0 0.00 0.00 0.00 62 1010.5
20260504171022 67 230 3.0 8.0 0.00 0.00 0.00 64 1010.6
20260504170521 67 241 3.0 8.0 0.00 0.00 0.00 65 1010.6
20260504151021 63 122 0.0 2.0 0.00 0.00 0.00 83 1010.7
20260504150522 61 0 1.0 2.0 0.00 0.00 0.00 83 1010.5
20260504141024 57 0 0.0 0.0 0.00 0.00 0.00 86 1010.2
20260504140521 57 0 0.0 0.0 0.00 0.00 0.00 86 1010.1
20260504130521 50 301 1.0 3.0 0.00 0.00 0.00 93 1009.7
20260504110521 50 263 2.0 2.0 0.00 0.00 0.00 90 1009.6
20260504100523 50 286 2.0 2.0 0.00 0.00 0.00 91 1009.4
20260504081551 52 0 0.0 0.0 0.00 0.00 0.00 90 1009.2
20260504081021 52 0 0.0 0.0 0.00 0.00 0.00 89 1009.0
20260504080521 52 0 0.0 0.0 0.00 0.00 0.00 90 1009.1
20260504050524 56 322 0.0 1.0 0.00 0.00 0.00 87 1009.2
20260504045521 56 298 1.0 1.0 0.00 0.00 0.00 87 1009.2
20260504045023 56 298 1.0 1.0 0.00 0.00 0.00 86 1009.3
20260504044536 56 318 1.0 1.0 0.00 0.00 0.00 86 1009.3
20260504044022 56 319 1.0 2.0 0.00 0.00 0.00 87 1009.4
20260504043521 57 319 1.0 2.0 0.00 0.00 0.00 86 1009.2
20260504043046 57 245 1.0 1.0 0.00 0.00 0.00 85 1009.3
20260504042521 57 246 0.0 1.0 0.00 0.00 0.00 84 1009.3
20260504042022 57 246 1.0 2.0 0.00 0.00 0.00 84 1009.3
20260504041538 57 246 1.0 2.0 0.00 0.00 0.00 83 1009.3
20260504041022 58 238 0.0 1.0 0.00 0.00 0.00 83 1009.3
20260504040521 58 0 0.0 0.0 0.00 0.00 0.00 83 1009.2
20260504040045 58 0 0.0 1.0 0.00 0.00 0.00 82 1009.3
20260504035522 59 0 0.0 1.0 0.00 0.00 0.00 81 1009.2
20260504035024 59 238 1.0 1.0 0.00 0.00 0.00 80 1009.2
20260504034540 60 238 1.0 1.0 0.00 0.00 0.00 79 1009.2
20260504034023 60 237 0.0 1.0 0.00 0.00 0.00 78 1009.2
20260504033520 60 0 0.0 0.0 0.00 0.00 0.00 77 1009.2
20260504033041 61 0 0.0 1.0 0.00 0.00 0.00 76 1009.3
20260504032521 62 0 0.0 2.0 0.00 0.00 0.00 75 1009.3
20260504032022 62 0 0.0 2.0 0.00 0.00 0.00 74 1009.3
20260504031540 63 238 0.0 2.0 0.00 0.00 0.00 73 1009.4
20260504031021 64 176 0.0 2.0 0.00 0.00 0.00 72 1009.4
20260504030521 65 207 0.0 2.0 0.00 0.00 0.00 71 1009.3
20260504030044 65 236 0.0 2.0 0.00 0.00 0.00 70 1009.2
20260504025525 65 153 0.0 2.0 0.00 0.00 0.00 70 1009.4
20260504025020 66 210 0.0 2.0 0.00 0.00 0.00 70 1009.4
20260504024544 66 158 1.0 2.0 0.00 0.00 0.00 69 1009.3
20260504024021 66 162 1.0 3.0 0.00 0.00 0.00 69 1009.4
20260504023524 66 143 1.0 4.0 0.00 0.00 0.00 70 1009.3
20260504023041 66 156 1.0 5.0 0.00 0.00 0.00 69 1009.4
20260504022521 66 224 2.0 5.0 0.00 0.00 0.00 69 1009.4
20260504022020 66 174 2.0 4.0 0.00 0.00 0.00 68 1009.4
20260504021539 67 165 2.0 4.0 0.00 0.00 0.00 68 1009.5
20260504021023 68 158 2.0 4.0 0.00 0.00 0.00 67 1009.4
20260504020520 68 165 1.0 4.0 0.00 0.00 0.00 67 1009.5
20260504020037 69 171 0.0 3.0 0.00 0.00 0.00 66 1009.5
20260504015523 69 223 1.0 3.0 0.00 0.00 0.00 66 1009.6
20260504015024 69 211 1.0 3.0 0.00 0.00 0.00 66 1009.7
20260504014540 69 176 1.0 3.0 0.00 0.00 0.00 66 1009.7
20260504014020 69 171 1.0 3.0 0.00 0.00 0.00 67 1009.8
20260504013523 68 235 1.0 3.0 0.00 0.00 0.00 70 1009.7
20260504013052 67 155 2.0 4.0 0.00 0.00 0.00 70 1009.7
20260504012524 68 142 1.0 4.0 0.00 0.00 0.00 70 1009.9
20260504012023 68 164 2.0 4.0 0.00 0.00 0.00 69 1009.8
20260504011540 68 185 1.0 4.0 0.00 0.00 0.00 70 1009.9